Find Starlink 32724

NORAD ID: 62441 Int'l Des: 2024-251 Owner: SPXS Country: US Constellation: starlink operational
LEOCIRCULAR

現在のビュー

3D地球を読み込み中...

About Starlink 32724

Starlink 32724 (NORAD 62441) is a starlink constellation satellite (v2 mini) launched Dec 29, 2024 by SPXS of US. It operates in LEO, CIRCULAR orbit with a mass of 730.00 kg.

次回通過

Passes for default location (London). Set your location on the main map for personalized predictions.

高度履歴

Loading altitude history...

軌道要素

1 62441U 24251K 26263.93321015 .00018425 00000-0 55498-3 0 9998
2 62441 53.1616 145.4026 0000700 291.1368 68.9559 15.34407540 97720
Epoch: Sep 20, 2026 • Age: 12 hours

現在のステータス

高度 475.4 km
遠地点 / 近地点 N/A
速度 7.63 km/s
衛星直下点 -40.26°S, 56.48°W
打ち上げ日 Dec 29, 2024
運用期間 1.7 years
タイプ internet

技術仕様

分類 Payload
質量 730.00 kg
乾燥質量 700.00 kg
長さ 0.30 m
スパン 29.00 m
形状 ? Box + pan
製造者 SPXS
バスタイプ Starlink V2M
フェーズステータス In Orbit
所有者/国 SPXS/US

Most Searched